Temp
-19 -19 -20 -20 -19 -18 -17 -17 -16 -16 -16 -16 -15 -17 -16 -16 -16 -16 -16 -16 -16 -16 -16 -16 -16 -16 -16 -16 -16 -16 -16 -16 -16 -16 -15 -15 -15 -15 -15 -15 -15 -15 -15 -15
-20 -20 -20 -20 -19 -19 -18 -17 -16 -15 -15 -17 -17 -17 -16 -16 -16 -16 -16 -16 -16 -16 -16 -16 -17 -17 -16 -16 -16 -16 -16 -16 -16 -16 -16 -16 -16 -16 -15 -15 -15 -15 -15 -16
-21 -21 -20 -19 -18 -18 -18 -18 -17 -16 -16 -16 -16 -16 -16 -16 -17 -16 -16 -16 -16 -16 -16 -16 -16 -16 -16 -16 -17 -17 -17 -17 -16 -16 -16 -15 -15 -15 -15 -15 -15 -15 -16 -16
-21 -22 -20 -19 -18 -18 -18 -18 -18 -17 -16 -16 -16 -16 -16 -16 -17 -17 -16 -17 -16 -16 -16 -16 -16 -17 -17 -17 -17 -17 -18 -17 -17 -17 -17 -16 -16 -16 -16 -16 -16 -16 -16 -16
-21 -21 -20 -19 -20 -19 -19 -19 -18 -17 -17 -17 -16 -16 -15 -16 -16 -17 -17 -16 -16 -16 -16 -16 -16 -17 -17 -17 -17 -17 -18 -18 -17 -17 -17 -17 -16 -16 -16 -16 -16 -16 -16 -16
-22 -21 -20 -21 -21 -21 -20 -19 -18 -18 -17 -17 -16 -15 -16 -17 -16 -16 -16 -16 -16 -16 -16 -17 -17 -17 -16 -17 -17 -18 -17 -17 -17 -17 -17 -17 -17 -16 -16 -16 -16 -16 -17 -17
-22 -21 -20 -21 -22 -21 -20 -20 -19 -18 -17 -17 -17 -17 -17 -17 -16 -16 -16 -16 -16 -17 -17 -17 -17 -17 -16 -16 -17 -18 -17 -17 -17 -17 -17 -17 -17 -17 -17 -17 -17 -17 -17 -17
-22 -21 -21 -22 -22 -21 -20 -20 -19 -18 -17 -17 -17 -17 -17 -17 -17 -16 -16 -16 -16 -16 -16 -16 -17 -16 -16 -16 -17 -17 -17 -17 -18 -18 -18 -18 -18 -18 -18 -18 -18 -17 -17 -17
-21 -22 -22 -22 -21 -20 -20 -20 -19 -19 -17 -18 -18 -18 -17 -17 -17 -16 -16 -16 -16 -16 -16 -16 -16 -16 -16 -17 -17 -17 -17 -17 -17 -17 -17 -18 -18 -18 -18 -18 -18 -17 -18 -18
-22 -22 -22 -21 -21 -21 -20 -20 -19 -19 -18 -19 -19 -18 -18 -17 -17 -17 -16 -16 -17 -17 -16 -16 -16 -16 -17 -17 -17 -17 -17 -17 -18 -17 -17 -17 -17 -17 -18 -17 -17 -17 -18 -18
-22 -22 -22 -22 -21 -21 -21 -20 -19 -19 -18 -18 -18 -18 -18 -17 -17 -17 -16 -16 -16 -16 -16 -16 -16 -16 -16 -17 -17 -17 -17 -17 -17 -17 -17 -17 -17 -17 -17 -17 -17 -18 -18 -18
-22 -21 -21 -21 -21 -21 -21 -20 -20 -19 -18 -18 -18 -18 -18 -17 -17 -16 -16 -16 -16 -16 -16 -16 -17 -17 -17 -17 -17 -17 -16 -17 -17 -17 -17 -17 -17 -17 -18 -18 -18 -18 -18 -18
-22 -21 -21 -21 -21 -21 -21 -21 -20 -20 -19 -19 -18 -18 -18 -18 -17 -17 -17 -17 -17 -16 -16 -16 -17 -17 -16 -17 -16 -16 -17 -17 -17 -17 -17 -17 -17 -17 -18 -18 -18 -19 -19 -19
-21 -21 -21 -21 -20 -21 -22 -22 -21 -20 -20 -19 -19 -18 -18 -18 -17 -17 -16 -17 -17 -17 -17 -17 -17 -17 -17 -17 -17 -17 -17 -17 -17 -17 -18 -17 -18 -18 -19 -19 -19 -19 -19 -20
-21 -21 -21 -21 -21 -21 -22 -22 -21 -21 -20 -20 -19 -18 -18 -18 -18 -18 -17 -17 -17 -17 -17 -17 -17 -17 -17 -17 -17 -17 -17 -18 -18 -18 -18 -18 -19 -19 -19 -19 -19 -19 -20 -20
-21 -21 -21 -21 -21 -21 -21 -22 -22 -21 -20 -20 -19 -19 -19 -19 -18 -18 -18 -18 -17 -17 -17 -17 -17 -17 -17 -17 -17 -18 -18 -18 -18 -18 -19 -20 -19 -19 -19 -19 -20 -20 -20 -20
-22 -21 -21 -21 -21 -21 -21 -21 -22 -21 -20 -20 -19 -19 -19 -19 -18 -18 -18 -18 -18 -17 -17 -17 -18 -18 -18 -18 -18 -18 -18 -18 -19 -20 -20 -19 -19 -19 -20 -20 -20 -20 -20 -20
-22 -22 -22 -22 -21 -21 -21 -21 -21 -21 -20 -21 -20 -20 -20 -19 -19 -18 -18 -18 -18 -18 -18 -18 -19 -19 -19 -19 -18 -19 -20 -20 -20 -19 -19 -19 -20 -20 -20 -20 -20 -20 -21 -21
-22 -22 -22 -22 -22 -22 -22 -22 -22 -21 -21 -22 -20 -21 -21 -21 -20 -20 -19 -19 -19 -19 -19 -19 -20 -20 -20 -20 -20 -20 -20 -20 -19 -20 -20 -20 -20 -20 -20 -21 -21 -21 -21 -22
-23 -23 -23 -22 -22 -22 -23 -23 -22 -22 -21 -22 -22 -22 -21 -21 -21 -21 -21 -20 -20 -20 -20 -19 -20 -20 -20 -20 -20 -20 -20 -20 -20 -21 -21 -21 -21 -21 -21 -21 -22 -22 -22 -22
-23 -23 -23 -22 -22 -22 -22 -23 -22 -22 -22 -21 -22 -22 -22 -21 -21 -21 -21 -21 -20 -20 -21 -20 -20 -21 -21 -20 -20 -20 -20 -21 -21 -21 -21 -21 -21 -22 -22 -22 -23 -23 -22 -22
-23 -23 -22 -22 -22 -22 -22 -23 -23 -22 -22 -22 -22 -22 -22 -21 -21 -21 -21 -21 -20 -20 -20 -21 -21 -20 -20 -20 -21 -21 -21 -21 -21 -21 -22 -22 -22 -23 -23 -23 -23 -23 -23 -24
-23 -23 -23 -22 -22 -22 -22 -23 -23 -22 -22 -22 -22 -22 -22 -21 -21 -20 -21 -21 -21 -21 -21 -21 -21 -21 -21 -21 -21 -22 -22 -22 -22 -22 -23 -23 -23 -23 -23 -23 -23 -24 -25 -27
-23 -23 -22 -22 -23 -22 -22 -23 -23 -23 -22 -22 -22 -22 -21 -21 -21 -21 -22 -21 -21 -21 -21 -21 -21 -22 -22 -22 -22 -22 -23 -23 -23 -23 -23 -24 -24 -24 -24 -25 -26 -27 -29 -30
-23 -23 -23 -23 -23 -23 -23 -23 -23 -22 -22 -22 -22 -22 -21 -21 -21 -22 -21 -21 -21 -21 -21 -22 -22 -23 -23 -23 -23 -23 -23 -23 -24 -24 -24 -24 -25 -25 -26 -27 -29 -30 -31 -31
-24 -24 -23 -23 -23 -23 -23 -23 -23 -22 -22 -22 -22 -22 -22 -22 -22 -22 -21 -21 -22 -22 -22 -23 -23 -23 -23 -24 -24 -24 -24 -24 -24 -25 -25 -26 -27 -28 -29 -30 -31 -31 -32 -32
-24 -23 -23 -23 -23 -23 -23 -23 -22 -22 -22 -22 -22 -22 -22 -22 -22 -22 -23 -23 -23 -23 -23 -23 -24 -24 -24 -24 -24 -25 -25 -25 -26 -26 -27 -28 -29 -30 -31 -32 -32 -32 -32 -33
Height
5585 5594 5597 5602 5607 5610 5613 5617 5619 5629 5630 5635 5641 5649 5655 5657 5661 5664 5666 5669 5671 5673 5676 5678 5679 5679 5679 5680 5679 5679 5680 5681 5683 5684 5685 5686 5687 5688 5688 5688 5688 5688 5688 5689
5574 5581 5587 5590 5597 5602 5604 5608 5609 5616 5621 5627 5630 5636 5646 5651 5652 5656 5658 5661 5665 5668 5670 5672 5673 5673 5674 5673 5675 5674 5674 5675 5677 5679 5680 5681 5681 5682 5682 5682 5681 5681 5680 5680
5566 5568 5573 5581 5590 5592 5599 5601 5603 5604 5612 5618 5622 5626 5632 5641 5643 5647 5651 5655 5657 5659 5662 5664 5666 5666 5668 5668 5668 5668 5669 5669 5670 5671 5672 5673 5674 5674 5674 5674 5673 5673 5671 5670
5558 5559 5565 5571 5575 5584 5589 5593 5595 5593 5601 5606 5612 5616 5620 5631 5634 5636 5641 5645 5648 5650 5653 5656 5659 5661 5662 5663 5663 5662 5662 5663 5664 5664 5664 5665 5665 5665 5666 5665 5664 5662 5661 5659
5550 5555 5557 5560 5563 5571 5577 5579 5582 5587 5591 5595 5600 5606 5612 5618 5621 5626 5630 5634 5639 5642 5646 5648 5652 5653 5654 5655 5656 5656 5656 5656 5657 5657 5657 5657 5656 5656 5655 5654 5653 5652 5650 5648
5544 5547 5546 5550 5552 5558 5564 5570 5577 5579 5580 5585 5591 5595 5602 5606 5613 5617 5620 5625 5629 5633 5636 5639 5642 5644 5645 5647 5648 5649 5649 5650 5650 5649 5649 5649 5648 5647 5646 5645 5643 5641 5638 5636
5538 5537 5537 5540 5545 5550 5557 5562 5565 5570 5573 5577 5582 5586 5589 5596 5602 5607 5612 5616 5619 5623 5627 5630 5633 5635 5636 5639 5640 5641 5641 5642 5642 5641 5641 5640 5639 5637 5635 5633 5631 5628 5626 5623
5532 5532 5532 5534 5540 5546 5549 5552 5557 5562 5565 5568 5572 5576 5581 5587 5593 5598 5602 5607 5611 5614 5617 5621 5623 5625 5627 5630 5632 5633 5632 5632 5633 5632 5631 5629 5628 5626 5625 5622 5620 5616 5612 5608
5529 5531 5530 5532 5538 5541 5544 5546 5550 5555 5556 5559 5564 5568 5573 5578 5583 5588 5592 5596 5600 5604 5608 5611 5615 5617 5618 5621 5623 5623 5624 5623 5623 5622 5620 5618 5616 5613 5611 5608 5606 5602 5598 5594
5526 5526 5526 5530 5534 5536 5538 5539 5543 5547 5546 5552 5557 5562 5566 5570 5574 5579 5582 5586 5589 5593 5597 5600 5604 5606 5609 5610 5612 5612 5613 5613 5613 5610 5608 5605 5603 5601 5599 5596 5593 5588 5584 5579
5522 5523 5524 5524 5527 5530 5532 5534 5538 5541 5542 5547 5552 5556 5560 5562 5567 5571 5574 5577 5579 5582 5586 5589 5591 5594 5597 5599 5600 5602 5602 5601 5599 5598 5595 5592 5591 5589 5585 5582 5578 5573 5568 5564
5520 5521 5522 5523 5524 5526 5529 5532 5534 5535 5537 5542 5546 5549 5553 5555 5559 5563 5566 5566 5568 5571 5574 5578 5581 5585 5587 5589 5591 5591 5589 5587 5587 5585 5582 5580 5577 5574 5570 5566 5562 5558 5554 5549
5518 5518 5520 5520 5521 5522 5525 5529 5531 5534 5535 5537 5542 5545 5548 5551 5551 5555 5558 5561 5563 5566 5569 5573 5576 5578 5578 5578 5578 5578 5577 5576 5574 5570 5569 5567 5564 5561 5557 5552 5547 5543 5539 5533
5514 5515 5518 5518 5517 5517 5520 5524 5527 5530 5531 5533 5536 5539 5543 5545 5546 5547 5547 5552 5555 5558 5561 5564 5566 5567 5567 5567 5566 5565 5563 5562 5560 5559 5558 5555 5551 5547 5543 5539 5534 5529 5524 5518
5508 5510 5513 5513 5513 5513 5515 5518 5521 5524 5527 5529 5531 5533 5536 5538 5539 5541 5541 5543 5547 5549 5551 5554 5556 5556 5554 5552 5552 5551 5551 5550 5550 5548 5544 5540 5538 5533 5529 5525 5520 5515 5509 5503
5501 5504 5506 5507 5509 5510 5509 5512 5515 5519 5523 5525 5526 5528 5530 5531 5532 5533 5536 5539 5540 5540 5541 5541 5542 5543 5543 5543 5542 5542 5540 5538 5536 5533 5530 5528 5525 5520 5516 5510 5505 5499 5492 5485
5493 5496 5498 5501 5503 5503 5503 5504 5508 5512 5516 5519 5520 5522 5524 5524 5524 5526 5530 5532 5534 5534 5532 5532 5534 5535 5534 5532 5530 5529 5528 5526 5524 5522 5519 5515 5510 5505 5500 5495 5489 5481 5473 5465
5485 5487 5489 5493 5494 5495 5496 5497 5501 5507 5508 5513 5512 5516 5516 5517 5517 5519 5522 5524 5524 5525 5526 5525 5524 5524 5523 5522 5521 5518 5517 5515 5513 5509 5505 5500 5496 5491 5485 5478 5471 5463 5455 5445
5477 5480 5482 5485 5486 5486 5486 5486 5491 5497 5501 5505 5506 5507 5509 5509 5511 5514 5514 5515 5517 5517 5517 5517 5516 5515 5514 5512 5510 5508 5507 5504 5499 5495 5491 5487 5481 5475 5469 5461 5453 5444 5434 5423
5468 5472 5475 5477 5478 5478 5479 5479 5482 5488 5495 5497 5499 5502 5503 5504 5505 5506 5508 5507 5508 5509 5509 5508 5508 5506 5504 5503 5500 5497 5494 5489 5486 5482 5477 5472 5466 5459 5451 5443 5433 5423 5412 5401
5461 5465 5467 5469 5470 5471 5472 5474 5475 5480 5487 5491 5493 5495 5496 5498 5498 5499 5498 5498 5500 5500 5500 5499 5498 5496 5494 5492 5489 5485 5480 5477 5473 5468 5463 5457 5449 5441 5433 5424 5414 5404 5391 5378
5453 5456 5459 5460 5462 5463 5466 5466 5469 5473 5479 5482 5485 5488 5488 5489 5490 5491 5493 5494 5493 5493 5491 5490 5488 5486 5483 5480 5476 5472 5469 5464 5460 5454 5448 5440 5432 5424 5415 5405 5394 5381 5369 5356
5445 5448 5450 5451 5452 5454 5455 5458 5463 5466 5471 5475 5478 5480 5480 5481 5482 5484 5485 5485 5485 5483 5482 5480 5478 5474 5470 5467 5463 5460 5456 5450 5445 5438 5431 5423 5415 5405 5395 5384 5372 5361 5349 5336
5438 5440 5441 5442 5444 5444 5446 5451 5456 5459 5462 5466 5469 5471 5471 5473 5475 5475 5475 5475 5474 5472 5471 5468 5465 5462 5458 5454 5450 5446 5441 5436 5429 5422 5414 5406 5397 5387 5376 5364 5354 5343 5332 5320
5430 5433 5434 5436 5438 5440 5442 5447 5449 5451 5454 5458 5460 5462 5462 5464 5465 5465 5465 5465 5463 5461 5459 5456 5453 5450 5446 5442 5438 5433 5427 5420 5413 5405 5397 5388 5378 5367 5357 5347 5337 5327 5316 5306
5424 5427 5430 5432 5433 5436 5436 5439 5442 5445 5447 5450 5452 5454 5455 5456 5456 5456 5455 5454 5451 5449 5447 5444 5441 5438 5433 5429 5423 5417 5411 5404 5396 5388 5380 5370 5360 5350 5341 5332 5322 5312 5302 5293
5421 5424 5424 5428 5430 5431 5432 5434 5437 5440 5442 5443 5445 5446 5447 5447 5446 5445 5444 5442 5439 5437 5435 5432 5429 5425 5420 5414 5408 5402 5395 5387 5380 5371 5361 5353 5345 5336 5328 5319 5309 5299 5290 5281
Wind_Speed
47 42 42 36 36 40 43 43 46 40 43 43 40 35 30 29 26 26 27 28 27 24 22 20 21 22 24 19 17 18 20 21 24 26 25 26 25 24 23 25 27 29 29 30
47 43 41 43 41 40 41 45 49 46 44 37 37 34 27 29 30 31 32 32 32 27 26 24 23 26 29 24 21 19 22 24 22 24 25 25 25 26 26 27 29 30 32 34
38 39 40 45 41 42 42 45 47 50 46 41 41 37 31 29 29 32 32 30 30 34 31 25 26 31 27 24 23 22 22 24 27 27 25 28 30 31 31 33 35 36 37 38
29 27 36 36 41 38 39 40 45 50 47 45 42 40 40 28 36 35 35 34 32 39 28 26 27 31 29 24 24 24 23 25 26 27 30 31 32 33 35 38 40 41 42 44
19 17 23 30 30 31 32 39 39 44 47 45 44 44 43 34 34 39 40 40 35 37 34 33 30 31 29 25 23 25 25 26 26 26 27 27 28 28 32 35 39 43 45 46
19 18 21 21 29 28 31 37 39 39 40 39 44 47 44 37 34 38 38 45 39 38 34 34 31 33 35 28 25 25 27 26 26 26 25 25 26 28 30 33 36 39 42 44
15 19 23 24 26 29 28 35 35 35 40 41 38 41 42 38 34 37 36 31 35 41 37 35 35 34 36 37 30 29 29 28 29 28 28 30 32 34 37 39 41 44 46 49
13 8 6 16 26 28 28 32 34 30 31 35 38 36 34 33 33 34 35 33 34 34 38 43 40 38 40 35 35 34 32 33 33 34 37 35 35 39 43 45 47 48 48 50
8 8 9 14 17 15 21 27 20 34 37 33 37 31 27 29 28 31 29 31 34 38 37 33 36 40 38 39 41 39 37 37 34 37 35 38 42 44 43 41 42 44 47 49
2 1 9 15 18 18 13 12 17 17 33 30 31 29 25 25 25 30 32 36 37 40 42 40 46 44 43 45 45 41 41 33 34 39 40 40 40 40 41 43 47 49 51 53
6 3 1 5 10 10 6 11 15 14 22 30 26 24 24 26 25 28 30 39 32 39 46 49 51 46 48 50 47 43 41 43 42 40 39 38 39 42 45 48 50 51 51 52
5 5 4 9 13 15 13 11 7 10 19 27 27 24 29 26 22 28 31 30 37 43 48 55 53 50 49 39 37 40 44 44 43 45 46 44 46 49 51 50 51 51 53 54
11 10 6 10 14 22 20 18 14 11 15 20 23 22 22 27 28 25 26 25 24 31 43 43 36 37 37 37 34 35 48 48 54 53 50 50 53 56 52 50 51 52 54 57
15 15 10 12 13 19 21 23 20 14 13 17 25 24 28 26 29 25 32 31 30 40 38 34 33 31 36 41 43 45 48 51 51 49 52 51 53 49 47 49 51 54 56 55
18 16 13 15 15 19 25 27 25 19 16 17 21 22 29 27 34 32 23 23 31 43 43 42 42 42 41 45 47 44 47 48 46 47 45 46 45 46 50 54 56 55 55 57
21 20 19 17 17 17 25 29 30 23 20 16 21 21 22 27 36 33 31 31 26 29 27 27 30 35 38 40 44 47 47 48 47 46 42 43 47 50 53 54 53 54 59 64
25 24 22 19 21 23 23 30 35 29 22 19 16 16 22 24 36 33 32 34 34 32 30 30 36 40 43 45 44 44 47 46 42 40 45 48 50 51 50 53 57 62 65 68
28 26 24 22 24 24 26 35 39 34 26 23 9 15 17 15 19 27 27 31 20 26 30 26 26 28 32 36 38 34 34 37 41 45 49 50 49 51 55 59 63 66 70 74
32 28 26 26 24 25 26 30 43 39 33 20 13 22 14 14 12 13 16 17 19 25 25 25 27 32 34 35 35 35 38 42 45 47 47 49 52 57 61 64 68 72 76 81
32 29 28 26 24 24 25 30 34 48 27 31 22 21 20 20 19 20 19 20 22 26 27 31 35 36 34 36 39 41 44 45 46 48 51 54 58 62 66 69 73 77 81 85
29 28 27 27 25 21 21 32 30 40 37 28 28 25 18 22 22 20 21 23 25 26 27 31 35 33 35 41 44 45 46 48 49 51 55 59 63 67 70 73 77 80 86 90
25 26 27 26 28 26 26 22 26 31 30 30 26 27 23 23 17 20 30 28 28 30 35 38 32 35 41 43 45 47 48 48 52 56 60 64 67 70 73 76 81 85 88 88
23 25 25 25 26 29 29 27 27 24 27 30 31 29 23 22 30 32 30 30 33 34 35 35 38 42 42 45 46 46 49 53 57 61 64 67 70 73 77 81 83 84 82 78
24 24 21 23 20 22 25 26 25 24 27 30 33 29 26 29 33 34 37 41 40 40 39 41 42 44 44 44 46 50 54 58 61 64 67 69 72 76 78 78 77 75 72 69
22 24 22 16 17 14 20 25 20 23 22 25 28 29 34 35 38 39 36 39 41 40 40 42 44 44 44 47 51 55 58 61 64 66 68 71 73 73 72 71 69 66 64 64
22 20 21 21 18 22 27 36 27 26 28 30 32 33 35 35 33 34 40 42 39 40 42 42 43 46 49 52 55 58 61 63 65 67 70 70 69 67 65 62 60 60 61 61
21 19 19 27 24 15 15 23 27 29 29 29 29 30 30 31 33 36 37 37 38 38 40 43 47 51 53 56 58 60 61 64 66 67 65 64 62 60 57 56 57 58 59 57
Wind_Direction
242 238 242 237 237 240 241 244 246 244 247 252 252 248 245 242 228 224 224 228 229 234 237 245 261 260 263 267 292 282 264 270 261 256 257 262 258 258 257 255 259 264 269 273
249 248 246 245 238 237 241 242 247 245 240 247 255 254 244 246 245 233 231 227 234 236 244 248 252 254 254 268 275 269 261 259 262 260 259 258 259 263 263 265 267 270 274 276
254 258 257 248 246 243 239 245 250 251 250 247 247 248 247 235 244 243 240 240 237 235 234 231 246 258 248 262 269 266 257 260 264 266 265 262 264 267 271 271 270 270 274 275
248 259 260 256 252 246 246 245 246 253 250 250 249 248 248 227 233 240 235 232 229 234 233 237 240 239 242 250 260 261 257 253 257 261 263 267 269 270 268 267 269 272 273 274
233 264 260 255 250 246 237 236 238 246 251 250 250 249 248 238 226 230 237 234 232 234 236 236 239 240 238 241 252 253 255 250 253 256 260 263 267 270 268 268 271 273 274 277
261 273 261 245 236 230 225 227 234 239 245 248 248 248 249 245 236 233 234 236 231 233 239 229 230 243 239 242 248 251 253 253 257 259 264 269 274 275 274 274 275 275 276 276
260 275 275 243 215 222 218 227 227 233 241 242 244 246 245 242 238 238 238 240 232 230 233 228 229 232 231 238 250 254 256 256 258 260 266 268 270 271 272 272 273 274 276 277
243 292 272 207 203 215 222 225 229 233 236 239 242 245 243 240 236 239 242 237 231 232 234 241 233 236 239 246 246 250 253 256 261 261 264 266 270 273 273 274 276 278 280 280
232 290 187 173 186 202 233 252 223 222 232 231 237 241 240 231 228 234 238 237 236 236 234 247 236 234 234 242 244 249 253 264 277 281 277 281 281 281 282 280 283 287 287 286
164 250 213 170 201 184 189 210 241 256 202 219 227 232 235 230 230 231 237 233 233 229 234 237 227 235 236 240 246 253 252 261 272 284 279 279 280 282 284 286 289 291 290 288
210 256 328 260 211 197 200 235 243 260 190 217 220 216 216 235 226 234 243 252 237 238 239 233 229 235 237 243 247 253 264 264 269 282 279 279 281 284 289 293 294 293 292 291
211 246 254 279 269 259 249 243 254 265 203 200 219 225 222 229 223 228 241 254 240 238 232 229 231 237 242 249 251 258 268 267 271 281 281 280 283 290 291 291 292 291 291 291
217 251 282 265 270 252 243 227 233 241 239 222 217 224 229 223 230 237 239 228 230 234 243 238 245 253 258 244 253 274 275 262 271 268 279 281 284 288 288 290 292 292 293 294
224 241 244 251 277 252 238 234 228 234 248 235 229 228 221 220 239 243 235 236 239 238 235 241 252 257 245 254 257 259 255 259 260 263 274 281 286 286 289 291 292 293 294 295
227 237 231 254 271 263 234 235 238 239 247 251 239 234 233 239 240 241 227 227 233 237 239 241 249 257 255 250 250 250 252 256 261 273 283 287 287 289 289 291 293 295 294 296
241 241 243 250 261 263 237 234 236 232 228 236 235 236 239 241 238 250 254 247 238 235 239 234 242 245 247 251 249 251 252 260 271 284 287 288 289 291 292 293 294 295 298 299
242 242 247 250 258 264 261 236 235 230 220 232 201 226 228 239 238 243 254 249 245 249 239 244 260 254 250 247 250 255 264 275 282 287 289 291 293 293 293 295 298 300 302 303
241 245 250 254 263 267 264 246 230 225 218 240 169 238 245 245 234 237 246 246 244 256 253 254 262 268 272 275 280 280 283 286 289 290 291 292 292 294 298 300 302 303 304 305
239 242 247 255 259 257 265 259 225 222 231 220 225 237 254 265 263 259 253 252 254 257 255 255 257 270 273 285 287 288 289 289 290 291 292 294 296 299 302 303 304 305 307 309
236 241 244 249 254 252 265 241 233 225 226 240 245 244 236 256 264 268 265 265 270 272 268 257 264 276 281 286 289 291 291 294 294 294 296 298 300 302 304 305 307 309 310 312
230 235 242 248 248 255 255 233 235 226 227 235 247 251 240 257 262 266 282 280 278 279 278 278 279 279 284 288 290 291 294 295 295 297 298 300 303 305 307 309 310 311 314 317
235 237 236 244 242 247 252 231 231 238 228 238 242 247 246 251 256 261 265 268 273 278 279 278 275 282 289 293 292 293 293 294 296 298 301 304 306 308 309 311 314 317 319 320
235 234 242 252 248 251 243 228 221 222 218 235 241 246 252 252 260 254 254 275 276 277 277 273 279 286 290 291 292 292 294 297 300 302 305 306 309 310 313 316 319 320 320 320
237 234 249 251 240 245 231 216 221 223 229 233 238 247 258 257 247 253 272 279 278 281 277 280 284 287 289 290 292 294 297 299 303 305 308 309 312 315 318 321 321 320 319 319
225 230 224 224 220 225 203 221 224 235 241 244 241 256 249 244 262 261 259 268 273 276 279 282 284 285 289 292 295 298 301 304 306 308 310 313 317 320 321 320 319 319 320 321
212 215 219 229 237 235 244 228 223 226 221 234 244 245 245 248 251 257 263 264 269 276 279 281 284 288 292 296 299 301 304 307 309 311 315 319 320 320 319 318 319 321 322 323
212 234 231 206 220 229 212 204 206 214 226 232 237 240 244 250 255 260 265 269 271 275 280 285 289 292 296 297 301 305 308 310 313 317 319 319 318 317 316 318 321 323 323 323